Culdrose, United Kingdom

12:09 AM GMT on February 22, 2017 (GMT +0000)
Culdrose

Weather History for EGDR - September, 2013

Change the Weather History Date:

Thursday, September 19, 2013

  Actual Average Record
Temperature  
Mean Temperature 57 °F -  
Max Temperature 63 °F 58 °F 68 °F (1998)
Min Temperature 51 °F 49 °F 42 °F (2000)
Degree Days  
Heating Degree Days 8    
Growing Degree Days 7 (Base 50)    
Moisture  
Dew Point 55 °F    
Average Humidity 91    
Maximum Humidity 100    
Minimum Humidity 76    
Precipitation  
Precipitation 0.08 in - - ()
Sea Level Pressure  
Sea Level Pressure 29.92 in    
Wind  
Wind Speed 11 mph ()    
Max Wind Speed 18 mph    
Max Gust Speed 32 mph    
Visibility 4.7 miles    
Events Rain    
Averages and records for this station are not official NWS values.
T = Trace of Precipitation, MM = Missing Value Source: Averaged Metar Reports

Daily Weather History Graph

Daily Weather History Graph

Search for Another Location

Airport or City:

Trip Planner

Search our weather history database for the weather conditions in past years. The results will help you decide how hot, cold, wet, or windy it might be!

Date:

Astronomy

Sep. 19, 2013 Rise Set
Actual Time 7:02 AM BST 7:25 PM BST
Civil Twilight 6:30 AM BST 7:57 PM BST
Nautical Twilight 5:51 AM BST 8:36 PM BST
Astronomical Twilight 5:11 AM BST 9:16 PM BST
Moon 7:08 PM BST (9/19) 7:00 AM BST (9/19)
Length of Visible Light 13h 27m
Length of Day
12h 22m
Full, 100% of the Moon is Illuminated
Sep 19
Full
Sep 19
Full
Sep 27
Last Quarter
Oct 5
New
Oct 12
First Quarter

Hourly Weather History & Observations

Time (BST) Temp. Dew Point Humidity Pressure Visibility Wind Dir Wind Speed Gust Speed Precip Events Conditions
12:50 AM 52 °F 49 °F 86% 30.00 in 12 mi West 8.1 mph - -   Scattered Clouds
12:50 AM 51.8 °F 50.0 °F 94% 29.98 in 6.2 mi West 8.1 mph - N/A   Partly Cloudy
1:50 AM 51.8 °F 50.0 °F 94% 29.98 in 6.2 mi West 9.2 mph - N/A   Partly Cloudy
2:50 AM 53.6 °F 48.2 °F 82% 29.95 in 6.2 mi West 8.1 mph - N/A   Mostly Cloudy
3:50 AM 55.4 °F 48.2 °F 77% 29.95 in 6.2 mi West 10.4 mph - N/A   Overcast
4:50 AM 55.4 °F 50.0 °F 82% 29.95 in 6.2 mi West 11.5 mph - N/A   Overcast
5:50 AM 55.4 °F 51.8 °F 88% 29.92 in 6.2 mi WSW 10.4 mph - N/A   Mostly Cloudy
6:50 AM 56 °F 54 °F 89% 29.92 in 11 mi WSW 15.0 mph - -   Haze
6:50 AM 55.4 °F 53.6 °F 94% 29.92 in 6.2 mi WSW 15.0 mph - N/A   Overcast
7:50 AM 57.2 °F 55.4 °F 94% 29.89 in 2.5 mi SW 15.0 mph - N/A Rain Light Rain
8:25 AM 57.2 °F 55.4 °F 94% 29.89 in 0.7 mi SW 12.7 mph - N/A   Light Drizzle
8:50 AM 57.2 °F 57.2 °F 100% 29.89 in 0.4 mi SW 12.7 mph - N/A   Light Drizzle
9:50 AM 58 °F 58 °F 100% 29.87 in 0 mi SW 16.1 mph - - Rain Light Drizzle
9:50 AM 57.2 °F 57.2 °F 100% 29.86 in 0.2 mi SW 16.1 mph - N/A   Light Drizzle
10:50 AM 59.0 °F 59.0 °F 100% 29.86 in 0.1 mi SW 17.3 mph 28.8 mph N/A   Light Drizzle
11:50 AM 60.8 °F 60.8 °F 100% 29.86 in 0.1 mi WSW 18.4 mph - N/A   Light Drizzle
12:50 PM 60 °F 60 °F 100% 29.86 in 0 mi West 11.5 mph - - Rain Light Drizzle
12:50 PM 60.8 °F 60.8 °F 100% 29.86 in 0.1 mi West 11.5 mph 23.0 mph N/A   Light Drizzle
1:50 PM 60.8 °F 60.8 °F 100% 29.86 in 2.5 mi WNW 18.4 mph 31.1 mph N/A   Light Drizzle
2:04 PM 62.6 °F 60.8 °F 94% 29.86 in 5.0 mi WNW 18.4 mph 32.2 mph N/A   Haze
2:50 PM 62.6 °F 59.0 °F 88% 29.86 in 6.2 mi NW 16.1 mph 28.8 mph N/A   Haze
3:50 PM 63 °F 57 °F 76% 29.89 in 7 mi NW 16.1 mph - -   Haze
3:50 PM 62.6 °F 57.2 °F 82% 29.89 in 6.2 mi NW 16.1 mph 27.6 mph N/A   Haze
4:50 PM 60.8 °F 55.4 °F 82% 29.89 in 6.2 mi NW 16.1 mph - N/A   Haze
5:50 PM 59.0 °F 55.4 °F 88% 29.92 in 6.2 mi NW 15.0 mph - N/A   Haze
6:50 PM 58 °F 54 °F 82% 29.94 in 6 mi WNW 13.8 mph - -   Haze
6:50 PM 57.2 °F 53.6 °F 88% 29.92 in 5.6 mi WNW 13.8 mph - N/A   Haze
7:50 PM 57.2 °F 53.6 °F 88% 29.95 in 5.6 mi WNW 13.8 mph - N/A   Haze
8:50 PM 55.4 °F 51.8 °F 88% 29.98 in 5.6 mi WNW 11.5 mph - N/A   Haze
9:50 PM 55 °F 53 °F 91% 30.00 in 6 mi WNW 10.4 mph - -   Haze
9:50 PM 55.4 °F 53.6 °F 94% 29.98 in 5.6 mi WNW 10.4 mph - N/A   Haze
10:50 PM 55.4 °F 53.6 °F 94% 30.01 in 5.6 mi WNW 8.1 mph - N/A   Haze
11:50 PM 55.4 °F 51.8 °F 88% 30.01 in 6.2 mi NW 9.2 mph - N/A   Haze